Location: Sternwarte_Laufen
(47.9344°N, 12.9346°E)
Time: 04:28:29
(UTC+02:00)

ISS - Pass Details

Date: 09 July 2025
Orbit: 413 x 417 km, 51.6° (Epoch: 12 July)

Event Time Altitude Azimuth Distance (km) Brightness Sun altitude
Rises 03:37:47 0° 292° (WNW) 2,360 -0.1 -12.6°
Reaches altitude 10° 03:39:54 10° 288° (WNW) 1,495 -1.1 -12.4°
Maximum altitude 03:43:11 56° 210° (SSW) 500 -3.8 -12.1°
Drops below altitude 10° 03:46:28 10° 131° (SE) 1,490 -1.0 -11.8°
Sets 03:48:35 0° 127° (SE) 2,350 0.0 -11.6°
